Location: Fond Mahaut
(18.0707°N, 63.0465°W)
Time: 20:50:31
(UTC+00:00)

Cosmos 1844 Rocket - Pass Details

Date: 08 December 2019
Orbit: 825 x 844 km, 71.0° (Epoch: 25 January)

Event Time Altitude Azimuth Distance (km) Brightness Sun altitude
Rises 21:51:10 0° 333° (NNW) 3,362 5.9 -4.0°
Reaches altitude 10° 21:53:40 10° 327° (NNW) 2,430 5.2 -4.6°
Maximum altitude 21:58:57 46° 256° (WSW) 1,111 4.0 -5.7°
Drops below altitude 10° 22:04:16 10° 184° (S) 2,438 5.5 -6.9°
Sets 22:06:48 0° 178° (S) 3,373 6.1 -7.5°
